| time (UTC) | temp F | wind direction | speed MPH | gust MPH | rain 1hr in | rain 24hr in | rain mn in | humidity % | barometer mb |
| 20260507114509 | 38 | 321 | 0.0 | 0.0 | 0.00 | 0.00 | 0.00 | 91 | 1015.2 |
| 20260507113019 | 37 | 321 | 0.0 | 0.0 | 0.00 | 0.00 | 0.00 | 91 | 1015.1 |
| 20260507111503 | 37 | 321 | 0.0 | 0.0 | 0.00 | 0.00 | 0.00 | 89 | 1015.1 |
| 20260507110100 | 37 | 321 | 0.0 | 0.0 | 0.00 | 0.00 | 0.00 | 88 | 1014.9 |
| 20260507104557 | 37 | 321 | 0.0 | 0.0 | 0.00 | 0.00 | 0.00 | 87 | 1015.0 |
| 20260507103057 | 37 | 321 | 0.0 | 0.0 | 0.00 | 0.00 | 0.00 | 85 | 1015.1 |
| 20260507101555 | 37 | 321 | 0.0 | 0.0 | 0.00 | 0.00 | 0.00 | 85 | 1014.9 |
| 20260507100057 | 38 | 321 | 0.0 | 0.0 | 0.00 | 0.00 | 0.00 | 84 | 1014.9 |
| 20260507094550 | 38 | 321 | 0.0 | 0.0 | 0.00 | 0.00 | 0.00 | 83 | 1014.9 |
| 20260507093051 | 39 | 321 | 0.0 | 0.0 | 0.00 | 0.00 | 0.00 | 82 | 1014.7 |
| 20260507091650 | 39 | 321 | 0.0 | 0.0 | 0.00 | 0.00 | 0.00 | 81 | 1014.8 |
| 20260507090047 | 40 | 321 | 0.0 | 0.0 | 0.00 | 0.00 | 0.00 | 81 | 1014.9 |
| 20260507084547 | 40 | 321 | 0.0 | 0.0 | 0.00 | 0.00 | 0.00 | 79 | 1014.8 |
| 20260507083041 | 41 | 321 | 0.0 | 0.0 | 0.00 | 0.00 | 0.00 | 77 | 1014.7 |
| 20260507081546 | 41 | 321 | 0.0 | 0.0 | 0.00 | 0.00 | 0.00 | 76 | 1014.7 |
| 20260507080043 | 42 | 321 | 0.0 | 0.0 | 0.00 | 0.00 | 0.00 | 75 | 1014.7 |
| 20260507074537 | 43 | 321 | 0.0 | 0.0 | 0.00 | 0.02 | 0.00 | 74 | 1014.8 |
| 20260507073035 | 43 | 321 | 0.0 | 0.0 | 0.00 | 0.02 | 0.00 | 73 | 1014.8 |
| 20260507071533 | 43 | 321 | 0.0 | 0.0 | 0.00 | 0.02 | 0.00 | 73 | 1014.8 |
| 20260507070033 | 44 | 312 | 0.0 | 0.0 | 0.00 | 0.02 | 0.00 | 73 | 1014.8 |
| 20260507064531 | 44 | 303 | 0.0 | 0.0 | 0.00 | 0.02 | 0.00 | 73 | 1014.8 |
| 20260507063032 | 44 | 304 | 0.0 | 0.0 | 0.00 | 0.02 | 0.00 | 73 | 1014.9 |
| 20260507061530 | 44 | 304 | 0.0 | 0.0 | 0.00 | 0.02 | 0.00 | 74 | 1015.0 |
| 20260507060028 | 44 | 300 | 0.0 | 0.0 | 0.00 | 0.02 | 0.00 | 76 | 1014.9 |
| 20260507054527 | 44 | 312 | 0.0 | 0.0 | 0.00 | 0.05 | 0.00 | 79 | 1014.9 |
| 20260507053025 | 44 | 304 | 0.0 | 0.0 | 0.00 | 0.05 | 0.00 | 83 | 1014.8 |
| 20260507051523 | 44 | 304 | 0.0 | 0.0 | 0.00 | 0.05 | 0.00 | 84 | 1014.7 |
| 20260507050027 | 44 | 304 | 0.0 | 0.0 | 0.00 | 0.05 | 0.00 | 84 | 1014.5 |
| 20260507044521 | 44 | 304 | 0.0 | 0.0 | 0.00 | 0.06 | 0.00 | 84 | 1014.6 |
| 20260507043025 | 44 | 304 | 0.0 | 0.0 | 0.00 | 0.06 | 0.00 | 83 | 1014.5 |
| 20260507041517 | 44 | 304 | 0.0 | 0.0 | 0.00 | 0.06 | 0.00 | 83 | 1014.6 |
| 20260507040014 | 45 | 304 | 0.0 | 0.0 | 0.00 | 0.06 | 0.00 | 82 | 1014.6 |
| 20260507034521 | 46 | 304 | 0.0 | 0.0 | 0.00 | 0.16 | 0.06 | 79 | 1014.6 |
| 20260507033015 | 46 | 304 | 0.0 | 0.0 | 0.00 | 0.16 | 0.06 | 77 | 1014.5 |
| 20260507031511 | 47 | 304 | 0.0 | 0.0 | 0.00 | 0.16 | 0.06 | 74 | 1014.5 |
| 20260507030010 | 48 | 304 | 0.0 | 0.0 | 0.00 | 0.16 | 0.06 | 72 | 1014.4 |
| 20260507024514 | 49 | 304 | 0.0 | 0.0 | 0.00 | 0.28 | 0.06 | 70 | 1014.3 |
| 20260507023009 | 49 | 304 | 0.0 | 0.0 | 0.00 | 0.28 | 0.06 | 69 | 1014.3 |
| 20260507021510 | 50 | 304 | 0.0 | 0.0 | 0.00 | 0.28 | 0.06 | 68 | 1014.2 |
| 20260507020008 | 50 | 304 | 0.0 | 0.0 | 0.00 | 0.28 | 0.06 | 67 | 1014.2 |
| 20260507014505 | 50 | 302 | 0.0 | 0.0 | 0.00 | 0.31 | 0.06 | 67 | 1014.1 |
| 20260507013005 | 51 | 304 | 0.0 | 0.0 | 0.00 | 0.31 | 0.06 | 66 | 1014.1 |
| 20260507011504 | 52 | 304 | 0.0 | 0.0 | 0.00 | 0.31 | 0.06 | 64 | 1013.9 |
| 20260507010004 | 52 | 304 | 0.0 | 0.0 | 0.00 | 0.31 | 0.06 | 62 | 1013.7 |
| 20260507004607 | 53 | 304 | 0.0 | 0.0 | 0.00 | 0.37 | 0.06 | 59 | 1013.6 |
| 20260507003116 | 54 | 294 | 0.0 | 4.0 | 0.00 | 0.37 | 0.06 | 57 | 1013.3 |
| 20260507001615 | 55 | 292 | 0.0 | 7.0 | 0.00 | 0.37 | 0.06 | 54 | 1013.2 |
| 20260506234558 | 56 | 336 | 0.0 | 8.0 | 0.00 | 0.47 | 0.06 | 55 | 1013.0 |
| 20260506233058 | 56 | 306 | 6.0 | 13.0 | 0.00 | 0.47 | 0.06 | 53 | 1013.0 |
| 20260506230109 | 56 | 321 | 1.0 | 8.0 | 0.00 | 0.47 | 0.06 | 61 | 1013.2 |
| 20260506224554 | 57 | 304 | 1.0 | 9.0 | 0.00 | 0.55 | 0.06 | 60 | 1013.1 |
| 20260506223055 | 57 | 279 | 0.0 | 6.0 | 0.00 | 0.55 | 0.06 | 58 | 1013.3 |
| 20260506221606 | 56 | 309 | 2.0 | 7.0 | 0.00 | 0.55 | 0.06 | 58 | 1013.3 |
| 20260506220054 | 56 | 311 | 0.0 | 8.0 | 0.00 | 0.55 | 0.06 | 58 | 1013.4 |
| 20260506214555 | 57 | 303 | 1.0 | 7.0 | 0.00 | 0.56 | 0.06 | 58 | 1013.4 |
| 20260506213052 | 57 | 318 | 3.0 | 8.0 | 0.00 | 0.56 | 0.06 | 56 | 1013.2 |
| 20260506211551 | 57 | 286 | 0.0 | 6.0 | 0.00 | 0.56 | 0.06 | 57 | 1013.1 |
| 20260506210057 | 56 | 302 | 0.0 | 8.0 | 0.00 | 0.56 | 0.06 | 58 | 1013.0 |
| 20260506204553 | 57 | 263 | 0.0 | 6.0 | 0.00 | 0.59 | 0.06 | 58 | 1013.1 |
| 20260506203100 | 57 | 290 | 0.0 | 5.0 | 0.00 | 0.59 | 0.06 | 57 | 1012.9 |
| 20260506201549 | 57 | 311 | 1.0 | 8.0 | 0.00 | 0.59 | 0.06 | 55 | 1013.1 |
| 20260506200054 | 57 | 248 | 0.0 | 3.0 | 0.00 | 0.59 | 0.06 | 55 | 1013.1 |
| 20260506194549 | 57 | 289 | 0.0 | 6.0 | 0.00 | 0.67 | 0.06 | 54 | 1013.2 |
| 20260506193051 | 57 | 248 | 0.0 | 5.0 | 0.00 | 0.67 | 0.06 | 56 | 1013.2 |
| 20260506191545 | 57 | 277 | 0.0 | 7.0 | 0.00 | 0.67 | 0.06 | 58 | 1013.1 |
| 20260506190045 | 56 | 293 | 0.0 | 3.0 | 0.00 | 0.67 | 0.06 | 60 | 1013.1 |
| 20260506184547 | 56 | 242 | 0.0 | 2.0 | 0.00 | 0.77 | 0.06 | 59 | 1013.1 |
| 20260506183142 | 56 | 350 | 0.0 | 5.0 | 0.00 | 0.77 | 0.06 | 59 | 1013.1 |
| 20260506181548 | 56 | 311 | 0.0 | 0.0 | 0.00 | 0.77 | 0.06 | 64 | 1013.1 |
| 20260506180040 | 55 | 300 | 0.0 | 0.0 | 0.00 | 0.77 | 0.06 | 62 | 1013.2 |
| 20260506174540 | 56 | 292 | 0.0 | 0.0 | 0.00 | 0.82 | 0.06 | 62 | 1013.3 |
| 20260506173044 | 56 | 250 | 0.0 | 0.0 | 0.00 | 0.82 | 0.06 | 63 | 1013.1 |
| 20260506171539 | 55 | 250 | 0.0 | 0.0 | 0.00 | 0.82 | 0.06 | 62 | 1013.2 |
| 20260506170045 | 56 | 292 | 0.0 | 0.0 | 0.00 | 0.82 | 0.06 | 63 | 1013.5 |
| 20260506164551 | 56 | 294 | 0.0 | 0.0 | 0.00 | 0.82 | 0.06 | 64 | 1013.4 |
| 20260506163037 | 56 | 302 | 0.0 | 1.0 | 0.00 | 0.82 | 0.06 | 65 | 1013.2 |
| 20260506161533 | 55 | 53 | 0.0 | 2.0 | 0.00 | 0.82 | 0.06 | 67 | 1013.0 |
| 20260506160035 | 55 | 351 | 0.0 | 0.0 | 0.00 | 0.82 | 0.06 | 64 | 1013.4 |
| 20260506154529 | 55 | 319 | 0.0 | 0.0 | 0.00 | 0.82 | 0.06 | 68 | 1013.2 |
| 20260506153028 | 55 | 312 | 0.0 | 1.0 | 0.00 | 0.82 | 0.06 | 67 | 1013.0 |
| 20260506151527 | 54 | 309 | 0.0 | 4.0 | 0.00 | 0.82 | 0.06 | 66 | 1013.2 |
| 20260506150024 | 54 | 340 | 0.0 | 7.0 | 0.00 | 0.82 | 0.06 | 67 | 1013.0 |
| 20260506144621 | 53 | 49 | 0.0 | 8.0 | 0.00 | 0.82 | 0.06 | 66 | 1012.8 |
| 20260506143020 | 52 | 355 | 0.0 | 2.0 | 0.00 | 0.82 | 0.06 | 77 | 1012.7 |
| 20260506141526 | 52 | 286 | 0.0 | 5.0 | 0.00 | 0.82 | 0.06 | 81 | 1012.5 |
| 20260506140013 | 51 | 273 | 0.0 | 0.0 | 0.00 | 0.82 | 0.06 | 87 | 1012.5 |
| 20260506134508 | 50 | 338 | 0.0 | 0.0 | 0.00 | 0.82 | 0.06 | 91 | 1012.1 |
| 20260506133004 | 50 | 264 | 0.0 | 0.0 | 0.00 | 0.82 | 0.06 | 95 | 1012.4 |
| 20260506131502 | 49 | 244 | 0.0 | 0.0 | 0.00 | 0.82 | 0.06 | 96 | 1012.4 |
| 20260506130100 | 48 | 243 | 0.0 | 0.0 | 0.00 | 0.82 | 0.06 | 97 | 1012.3 |
| 20260506124556 | 47 | 248 | 0.0 | 0.0 | 0.00 | 0.82 | 0.06 | 97 | 1012.2 |
| 20260506123055 | 47 | 277 | 0.0 | 0.0 | 0.00 | 0.82 | 0.06 | 98 | 1012.2 |
| 20260506121555 | 46 | 267 | 0.0 | 0.0 | 0.00 | 0.82 | 0.06 | 98 | 1011.7 |
| 20260506120059 | 45 | 286 | 0.0 | 0.0 | 0.00 | 0.82 | 0.06 | 98 | 1011.5 |